Weather History for Storm Lake, IA

Change the Weather History Date:

Sunday, June 30, 2013

  Actual Average Record
Temperature  
Mean Temperature 67 °F -  
Max Temperature 77 °F 81 °F 95 °F (2002)
Min Temperature 57 °F 61 °F 57 °F (1999)
Cooling Degree Days 2    
Growing Degree Days 17 (Base 50)    
Moisture  
Dew Point 50 °F    
Average Humidity 58    
Maximum Humidity 94    
Minimum Humidity 31    
Precipitation  
Precipitation 0.00 in - - ()
Sea Level Pressure  
Sea Level Pressure 30.07 in    
Wind  
Wind Speed 9 mph (NNE)    
Max Wind Speed 18 mph    
Max Gust Speed 23 mph    
Visibility 10 miles    
Events      
Averages and records for this station are not official NWS values.
T = Trace of Precipitation, MM = Missing Value Source: NWS Daily Summary

Daily Weather History Graph

Daily Weather History Graph

Search for Another Location

Airport:

Trip Planner

Search our weather history database for the weather conditions in past years. The results will help you decide how hot, cold, wet, or windy it might be!

Date:

Astronomy

Jun. 30, 2013 Rise Set
Actual Time 5:46 AM CDT 9:02 PM CDT
Civil Twilight 5:11 AM CDT 9:37 PM CDT
Nautical Twilight 4:26 AM CDT 10:22 PM CDT
Astronomical Twilight 3:31 AM CDT 11:16 PM CDT
Moon 12:52 AM CDT (6/30) 2:12 PM CDT (6/30)
Length of Visible Light 16h 25m
Length of Day
15h 15m
Last Quarter, 45% of the Moon is Illuminated
Jun 30
Last Quarter
Jul 8
New
Jul 15
First Quarter
Jul 22
Full
Jul 29
Last Quarter

Hourly Weather History & Observations

Time (CDT) Temp. Dew Point Humidity Pressure Visibility Wind Dir Wind Speed Gust Speed Precip Events Conditions
12:15 AM 62.6 °F 55.4 °F 77% 29.97 in 10.0 mi North 4.6 mph - N/A   Clear
12:35 AM 60.8 °F 55.4 °F 82% 29.97 in 10.0 mi North 4.6 mph - N/A   Clear
12:55 AM 60.8 °F 55.4 °F 82% 29.98 in 10.0 mi North 8.1 mph - N/A   Clear
1:15 AM 59.0 °F 55.4 °F 88% 29.99 in 10.0 mi North 5.8 mph - N/A   Clear
1:35 AM 60.8 °F 55.4 °F 82% 29.99 in 10.0 mi NNE 5.8 mph - N/A   Clear
1:55 AM 62.6 °F 55.4 °F 77% 29.99 in 10.0 mi NNE 4.6 mph - N/A   Clear
2:15 AM 60.8 °F 55.4 °F 82% 29.99 in 10.0 mi NNE 5.8 mph - N/A   Clear
2:35 AM 59.0 °F 55.4 °F 88% 30.00 in 10.0 mi North 6.9 mph - N/A   Clear
2:55 AM 59.0 °F 53.6 °F 82% 30.00 in 10.0 mi North 6.9 mph - N/A   Clear
3:15 AM 57.2 °F 53.6 °F 88% 30.01 in 10.0 mi North 8.1 mph - N/A   Clear
3:35 AM 57.2 °F 53.6 °F 88% 30.02 in 10.0 mi NNW 8.1 mph - N/A   Clear
3:55 AM 57.2 °F 53.6 °F 88% 30.02 in 10.0 mi North 8.1 mph - N/A   Scattered Clouds
4:15 AM 59.0 °F 55.4 °F 88% 30.02 in 10.0 mi North 9.2 mph - N/A   Overcast
4:35 AM 57.2 °F 55.4 °F 94% 30.02 in 10.0 mi North 8.1 mph - N/A   Mostly Cloudy
4:55 AM 57.2 °F 53.6 °F 88% 30.03 in 10.0 mi North 8.1 mph - N/A   Scattered Clouds
5:15 AM 57.2 °F 53.6 °F 88% 30.03 in 10.0 mi North 9.2 mph - N/A   Scattered Clouds
5:35 AM 57.2 °F 53.6 °F 88% 30.03 in 10.0 mi North 8.1 mph - N/A   Mostly Cloudy
5:55 AM 59.0 °F 53.6 °F 82% 30.04 in 10.0 mi NNE 11.5 mph - N/A   Partly Cloudy
6:15 AM 59.0 °F 53.6 °F 82% 30.04 in 10.0 mi NNE 11.5 mph - N/A   Clear
6:35 AM 59.0 °F 53.6 °F 82% 30.04 in 10.0 mi NNE 9.2 mph - N/A   Clear
6:55 AM 59.0 °F 53.6 °F 82% 30.04 in 10.0 mi NNE 10.4 mph - N/A   Clear
7:15 AM 60.8 °F 53.6 °F 77% 30.05 in 10.0 mi NNE 9.2 mph - N/A   Clear
7:35 AM 60.8 °F 53.6 °F 77% 30.05 in 10.0 mi NNE 10.4 mph - N/A   Clear
7:55 AM 60.8 °F 53.6 °F 77% 30.06 in 10.0 mi NNE 10.4 mph - N/A   Clear
8:15 AM 60.8 °F 53.6 °F 77% 30.06 in 10.0 mi NNE 10.4 mph - N/A   Clear
8:35 AM 62.6 °F 51.8 °F 68% 30.07 in 10.0 mi NNE 11.5 mph - N/A   Clear
8:55 AM 62.6 °F 51.8 °F 68% 30.08 in 10.0 mi NNE 10.4 mph - N/A   Clear
9:15 AM 64.4 °F 51.8 °F 64% 30.08 in 10.0 mi North 13.8 mph - N/A   Clear
9:35 AM 64.4 °F 50.0 °F 59% 30.09 in 10.0 mi NNE 12.7 mph - N/A   Clear
9:55 AM 64.4 °F 50.0 °F 59% 30.09 in 10.0 mi NNE 13.8 mph - N/A   Clear
10:15 AM 66.2 °F 50.0 °F 56% 30.08 in 10.0 mi NNE 13.8 mph - N/A   Clear
10:35 AM 68.0 °F 50.0 °F 52% 30.09 in 10.0 mi NNE 16.1 mph - N/A   Clear
10:55 AM 69.8 °F 48.2 °F 46% 30.09 in 10.0 mi NNE 16.1 mph - N/A   Clear
11:15 AM 69.8 °F 48.2 °F 46% 30.09 in 10.0 mi NNE 13.8 mph 21.9 mph N/A   Clear
11:35 AM 71.6 °F 44.6 °F 38% 30.09 in 10.0 mi NE 16.1 mph - N/A   Clear
11:55 AM 71.6 °F 44.6 °F 38% 30.09 in 10.0 mi NE 17.3 mph - N/A   Clear
12:15 PM 73.4 °F 46.4 °F 38% 30.09 in 10.0 mi ENE 15.0 mph 21.9 mph N/A   Clear
12:35 PM 73.4 °F 44.6 °F 36% 30.09 in 9.0 mi ENE 15.0 mph 20.7 mph N/A   Clear
12:55 PM 75.2 °F 46.4 °F 36% 30.09 in 9.0 mi NE 12.7 mph 20.7 mph N/A   Clear
1:15 PM 75.2 °F 44.6 °F 34% 30.09 in 9.0 mi ENE 16.1 mph 21.9 mph N/A   Clear
1:35 PM 75.2 °F 44.6 °F 34% 30.09 in 9.0 mi ENE 13.8 mph 23.0 mph N/A   Clear
1:55 PM 75.2 °F 44.6 °F 34% 30.09 in 8.0 mi ENE 16.1 mph - N/A   Clear
2:15 PM 77.0 °F 44.6 °F 32% 30.09 in 9.0 mi NE 18.4 mph - N/A   Clear
2:35 PM 75.2 °F 42.8 °F 31% 30.09 in 9.0 mi NE 16.1 mph - N/A   Clear
2:55 PM 77.0 °F 46.4 °F 34% 30.09 in 9.0 mi NE 13.8 mph - N/A   Clear
3:15 PM 77.0 °F 46.4 °F 34% 30.08 in 10.0 mi NE 15.0 mph - N/A   Clear
3:35 PM 77.0 °F 44.6 °F 32% 30.09 in 10.0 mi North 11.5 mph 17.3 mph N/A   Clear
3:55 PM 77.0 °F 46.4 °F 34% 30.09 in 9.0 mi North 10.4 mph 17.3 mph N/A   Clear
4:15 PM 77.0 °F 46.4 °F 34% 30.09 in 9.0 mi NE 13.8 mph 20.7 mph N/A   Clear
4:35 PM 77.0 °F 46.4 °F 34% 30.09 in 9.0 mi NE 12.7 mph 20.7 mph N/A   Clear
4:55 PM 77.0 °F 48.2 °F 36% 30.09 in 9.0 mi NNE 16.1 mph - N/A   Clear
5:15 PM 77.0 °F 48.2 °F 36% 30.09 in 8.0 mi NE 9.2 mph - N/A   Partly Cloudy
5:35 PM 75.2 °F 48.2 °F 38% 30.08 in 9.0 mi NNE 15.0 mph - N/A   Partly Cloudy
5:55 PM 75.2 °F 44.6 °F 34% 30.08 in 9.0 mi NNE 13.8 mph - N/A   Clear
6:15 PM 75.2 °F 46.4 °F 36% 30.08 in 9.0 mi NNE 13.8 mph - N/A   Clear
6:35 PM 75.2 °F 48.2 °F 38% 30.08 in 10.0 mi NNE 15.0 mph - N/A   Clear
6:55 PM 75.2 °F 48.2 °F 38% 30.09 in 10.0 mi NE 10.4 mph 16.1 mph N/A   Clear
7:15 PM 75.2 °F 46.4 °F 36% 30.09 in 10.0 mi NNE 13.8 mph - N/A   Clear
7:35 PM 75.2 °F 46.4 °F 36% 30.09 in 10.0 mi NE 13.8 mph - N/A   Clear
7:55 PM 73.4 °F 46.4 °F 38% 30.09 in 10.0 mi NNE 11.5 mph - N/A   Clear
8:15 PM 73.4 °F 46.4 °F 38% 30.09 in 9.0 mi NNE 11.5 mph - N/A   Clear
8:35 PM 71.6 °F 46.4 °F 41% 30.09 in 9.0 mi NNE 10.4 mph - N/A   Clear
8:55 PM 69.8 °F 48.2 °F 46% 30.10 in 9.0 mi NNE 9.2 mph - N/A   Clear
9:15 PM 68.0 °F 48.2 °F 49% 30.11 in 10.0 mi NNE 6.9 mph - N/A   Clear
9:35 PM 66.2 °F 48.2 °F 52% 30.11 in 10.0 mi NNE 6.9 mph - N/A   Clear
9:55 PM 66.2 °F 48.2 °F 52% 30.12 in 10.0 mi NNE 5.8 mph - N/A   Clear
10:15 PM 64.4 °F 50.0 °F 59% 30.12 in 10.0 mi NNE 4.6 mph - N/A   Clear
10:35 PM 64.4 °F 48.2 °F 56% 30.13 in 10.0 mi North 4.6 mph - N/A   Clear
10:55 PM 62.6 °F 48.2 °F 59% 30.13 in 10.0 mi North 5.8 mph - N/A   Clear
11:15 PM 64.4 °F 48.2 °F 56% 30.13 in 10.0 mi NNE 5.8 mph - N/A   Clear
11:35 PM 64.4 °F 48.2 °F 56% 30.13 in 10.0 mi NE 5.8 mph - N/A   Clear
11:55 PM 66.2 °F 50.0 °F 56% 30.13 in 10.0 mi NE 4.6 mph - N/A   Clear